START_TIME,STEP,MOV.,H8,t_acc.,H43,t_acc.,M25,t_acc.,H9,t_acc.
1980-11-13 21:00:18.060 ,7,0,0.,12.0,0.,12.0,0.,12.0,0.,12.0
1980-11-13 21:00:30.060 ,7,0,0.,12.0,0.,12.0,0.,12.0,0.,12.0
1980-11-13 21:00:42.060 ,7,0,0.,12.0,0.,12.0,0.,12.0,0.,12.0
1980-11-13 21:00:54.060 ,7,0,0.,12.0,0.,12.0,0.,12.0,0.,12.0
1980-11-13 21:01:06.060 ,7,0,0.,12.0,0.,12.0,0.,12.0,0.,12.0
1980-11-13 21:01:18.060 ,7,0,0.,12.0,0.,12.0,0.,12.0,0.,12.0
1980-11-13 21:01:30.060 ,6,0,0.,12.0,0.,12.0,0.,12.0,0.,12.0
1980-11-13 21:01:42.060 ,6,0,0.,12.0,0.,12.0,0.,12.0,0.,12.0
1980-11-13 21:01:54.060 ,6,0,0.,12.0,0.,12.0,0.,12.0,0.,12.0
1980-11-13 21:02:06.060 ,6,0,0.,12.0,0.,12.0,0.,12.0,0.,12.0
1980-11-13 21:02:18.060 ,5,0,0.,12.0,0.,12.0,0.,12.0,0.,12.0
1980-11-13 21:02:30.060 ,5,0,0.,12.0,0.,12.0,0.,12.0,0.,12.0
1980-11-13 21:02:42.060 ,5,0,0.,12.0,0.,12.0,0.,12.0,0.,12.0
1980-11-13 21:02:54.060 ,5,0,0.,12.0,0.,12.0,0.,12.0,0.,12.0
1980-11-13 21:03:06.060 ,4,0,0.,12.0,0.,12.0,0.,12.0,0.,12.0
1980-11-13 21:03:18.060 ,4,0,0.,12.0,0.,12.0,0.,12.0,0.,12.0
1980-11-13 21:03:30.060 ,4,0,0.,12.0,0.,12.0,0.,12.0,0.,12.0
1980-11-13 21:03:42.060 ,4,0,0.,12.0,0.,12.0,0.,12.0,0.,12.0
1980-11-13 21:03:54.060 ,3,0,0.,12.0,0.,12.0,0.,12.0,0.,12.0
1980-11-13 21:04:06.060 ,3,0,0.,12.0,0.,12.0,0.,12.0,0.,12.0
1980-11-13 21:04:18.060 ,3,0,0.,12.0,0.,12.0,0.,12.0,0.,12.0
1980-11-13 21:04:30.060 ,3,0,0.,12.0,0.,12.0,0.,12.0,0.,12.0
1980-11-13 21:04:42.060 ,2,0,0.,12.0,0.,12.0,0.,12.0,0.,12.0
1980-11-13 21:04:54.060 ,2,0,0.,12.0,0.,12.0,0.,12.0,0.,12.0
1980-11-13 21:05:06.060 ,2,0,0.,12.0,0.,12.0,0.,12.0,0.,12.0
1980-11-13 21:05:18.060 ,2,0,0.,12.0,0.,12.0,0.,12.0,0.,12.0
1980-11-13 21:05:30.060 ,1,0,,0,,0,,0,,0
1980-11-13 21:05:42.060 ,1,0,0.,12.0,0.,12.0,0.,12.0,0.,12.0
1980-11-13 21:05:54.060 ,0,0,0.,12.0,0.,12.0,0.,12.0,0.,12.0
1980-11-13 21:06:06.060 ,0,0,0.,12.0,0.,12.0,0.,12.0,0.,12.0
1980-11-13 21:07:21.660 ,0,0,,0,,0,,0,,0
1980-11-13 21:07:33.660 ,0,0,0.,12.0,0.,12.0,0.,12.0,0.,12.0
1980-11-13 21:07:30.060 ,0,0,0.,12.0,0.,12.0,0.,12.0,0.,12.0
1980-11-13 21:07:42.060 ,0,0,0.,12.0,0.,12.0,0.,12.0,0.,12.0
1980-11-13 21:07:54.060 ,1,0,0.,12.0,0.,12.0,0.,12.0,0.,12.0
1980-11-13 21:08:06.060 ,1,0,0.,12.0,0.,12.0,0.,12.0,0.,12.0
1980-11-13 21:08:18.060 ,1,0,0.,12.0,0.,12.0,0.,12.0,0.,12.0
1980-11-13 21:08:30.060 ,1,0,0.,12.0,0.,12.0,0.,12.0,0.,12.0
1980-11-13 21:08:42.060 ,2,0,0.,12.0,0.,12.0,0.,12.0,0.,12.0
1980-11-13 21:08:54.060 ,2,0,0.,12.0,0.,12.0,0.,12.0,0.,12.0
1980-11-13 21:09:06.060 ,2,0,0.,12.0,0.,12.0,0.,12.0,0.,12.0
1980-11-13 21:09:18.060 ,2,0,0.,12.0,0.,12.0,0.,12.0,0.,12.0
1980-11-13 21:09:30.060 ,3,0,0.,12.0,0.,12.0,0.,12.0,0.,12.0
1980-11-13 21:09:42.060 ,3,0,0.,12.0,0.,12.0,0.,12.0,0.,12.0
1980-11-13 21:09:54.060 ,3,0,0.,12.0,0.,12.0,0.,12.0,0.,12.0
1980-11-13 21:10:06.060 ,3,0,0.,12.0,0.,12.0,0.,12.0,0.,12.0
1980-11-13 21:10:18.060 ,4,0,0.,12.0,0.,12.0,0.,12.0,0.,12.0
1980-11-13 21:10:30.060 ,4,0,0.,12.0,0.,12.0,0.,12.0,0.,12.0
1980-11-13 21:10:42.060 ,4,0,0.,12.0,0.,12.0,0.,12.0,0.,12.0
1980-11-13 21:10:54.060 ,4,0,0.,12.0,0.,12.0,0.,12.0,0.,12.0
1980-11-13 21:11:06.060 ,5,0,0.,12.0,0.,12.0,0.,12.0,0.,12.0
1980-11-13 21:11:18.060 ,5,0,0.,12.0,0.,12.0,0.,12.0,0.,12.0
1980-11-13 21:11:30.060 ,5,0,0.,12.0,0.,12.0,0.,12.0,0.,12.0
1980-11-13 21:11:42.060 ,5,0,0.,12.0,0.,12.0,0.,12.0,0.,12.0
1980-11-13 21:11:54.060 ,6,0,0.,12.0,0.,12.0,0.,12.0,0.,12.0
1980-11-13 21:12:06.060 ,6,0,0.,12.0,0.,12.0,0.,12.0,0.,12.0
1980-11-13 21:12:18.060 ,6,0,0.,12.0,0.,12.0,0.,12.0,0.,12.0
1980-11-13 21:12:30.060 ,6,0,0.,12.0,0.,12.0,0.,12.0,0.,12.0
1980-11-13 21:12:42.060 ,7,0,0.,12.0,0.,12.0,0.,12.0,0.,12.0
1980-11-13 21:12:54.060 ,7,0,0.,12.0,0.,12.0,0.,12.0,0.,12.0
1980-11-13 21:13:06.060 ,7,0,0.,12.0,0.,12.0,0.,12.0,0.,12.0
1980-11-13 21:13:18.060 ,7,0,0.,12.0,0.,12.0,0.,12.0,0.,12.0
1980-11-13 21:13:30.060 ,7,0,0.,12.0,0.,12.0,0.,12.0,0.,12.0
1980-11-13 21:13:42.060 ,7,0,0.,12.0,0.,12.0,0.,12.0,0.,12.0
1980-11-13 21:13:54.060 ,0,0,0.,12.0,0.,12.0,0.,12.0,0.,12.0
1980-11-13 21:14:06.060 ,0,0,0.,12.0,0.,12.0,0.,12.0,0.,12.0
1980-11-13 21:14:40.260 ,0,0,,0,,0,,0,,0
1980-11-13 21:14:52.260 ,0,0,,0,,0,,0,,0
1980-11-13 21:14:42.060 ,0,0,0.,12.0,0.,12.0,0.,12.0,0.,12.0
1980-11-13 21:14:54.060 ,0,0,0.,12.0,0.,12.0,0.,12.0,0.,12.0
1980-11-13 21:15:06.060 ,5,0,0.,12.0,0.,12.0,0.,12.0,0.,12.0
1980-11-13 21:15:18.060 ,5,0,0.,12.0,0.,12.0,0.,12.0,0.,12.0
1980-11-13 21:15:30.060 ,5,0,0.,12.0,0.,12.0,0.,12.0,0.,12.0
1980-11-13 21:15:42.060 ,5,0,0.,12.0,0.,12.0,0.,12.0,0.,12.0
1980-11-13 21:15:54.060 ,0,0,0.,12.0,0.,12.0,0.,12.0,0.,12.0
1980-11-13 21:16:06.060 ,0,0,0.,12.0,0.,12.0,0.,12.0,0.,12.0
1980-11-13 21:16:18.060 ,2,0,0.,12.0,0.,12.0,0.,12.0,0.,12.0
1980-11-13 21:16:30.060 ,2,0,0.,12.0,0.,12.0,0.,12.0,0.,12.0
1980-11-13 21:16:42.060 ,2,0,0.,12.0,0.,12.0,0.,12.0,0.,12.0
1980-11-13 21:16:54.060 ,2,0,0.,12.0,0.,12.0,0.,12.0,0.,12.0
1980-11-13 21:17:06.060 ,2,0,0.,12.0,0.,12.0,0.,12.0,0.,12.0
1980-11-13 21:17:18.060 ,2,0,0.,12.0,0.,12.0,0.,12.0,0.,12.0
1980-11-13 21:17:30.060 ,2,0,0.,12.0,0.,12.0,0.,12.0,0.,12.0
1980-11-13 21:17:42.060 ,2,0,0.,12.0,0.,12.0,0.,12.0,0.,12.0
1980-11-13 21:17:54.060 ,2,0,0.,12.0,0.,12.0,0.,12.0,0.,12.0
1980-11-13 21:18:06.060 ,2,0,0.,12.0,0.,12.0,0.,12.0,0.,12.0
1980-11-13 21:18:18.060 ,2,0,0.,12.0,0.,12.0,0.,12.0,0.,12.0
1980-11-13 21:18:30.060 ,2,0,0.,12.0,0.,12.0,0.,12.0,0.,12.0
1980-11-13 21:18:42.060 ,2,0,0.,12.0,1.,12.0,0.,12.0,0.,12.0
1980-11-13 21:18:54.060 ,2,0,0.,12.0,0.,12.0,0.,12.0,0.,12.0
1980-11-13 21:19:06.060 ,2,0,0.,12.0,0.,12.0,0.,12.0,0.,12.0
1980-11-13 21:19:18.060 ,2,0,0.,12.0,0.,12.0,0.,12.0,0.,12.0
1980-11-13 21:19:30.060 ,2,0,0.,12.0,0.,12.0,0.,12.0,0.,12.0
1980-11-13 21:19:42.060 ,2,0,0.,12.0,0.,12.0,0.,12.0,0.,12.0
1980-11-13 21:19:54.060 ,2,0,0.,12.0,0.,12.0,0.,12.0,0.,12.0
1980-11-13 21:20:06.060 ,2,0,0.,12.0,0.,12.0,0.,12.0,0.,12.0
1980-11-13 21:20:18.060 ,2,0,0.,12.0,0.,12.0,0.,12.0,0.,12.0
1980-11-13 21:20:30.060 ,2,0,0.,12.0,0.,12.0,0.,12.0,0.,12.0
1980-11-13 21:20:42.060 ,2,0,0.,12.0,0.,12.0,0.,12.0,0.,12.0
1980-11-13 21:20:54.060 ,2,0,0.,12.0,0.,12.0,0.,12.0,0.,12.0
1980-11-13 21:21:06.060 ,2,0,0.,12.0,0.,12.0,0.,12.0,0.,12.0
1980-11-13 21:21:18.060 ,2,0,0.,12.0,0.,12.0,0.,12.0,0.,12.0
1980-11-13 21:21:30.060 ,2,0,0.,12.0,0.,12.0,0.,12.0,0.,12.0
1980-11-13 21:21:42.060 ,2,0,0.,12.0,0.,12.0,0.,12.0,0.,12.0
1980-11-13 21:21:54.060 ,2,0,0.,12.0,0.,12.0,0.,12.0,0.,12.0
1980-11-13 21:22:06.060 ,2,0,0.,12.0,0.,12.0,0.,12.0,0.,12.0
1980-11-13 21:22:18.060 ,2,0,0.,12.0,0.,12.0,0.,12.0,0.,12.0
1980-11-13 21:22:30.060 ,2,0,0.,12.0,0.,12.0,0.,12.0,0.,12.0
1980-11-13 21:22:42.060 ,2,0,0.,12.0,0.,12.0,0.,12.0,0.,12.0
1980-11-13 21:22:54.060 ,2,0,0.,12.0,0.,12.0,0.,12.0,0.,12.0
1980-11-13 21:23:06.060 ,2,0,0.,12.0,0.,12.0,0.,12.0,0.,12.0
1980-11-13 21:23:18.060 ,2,0,0.,12.0,0.,12.0,0.,12.0,0.,12.0
1980-11-13 21:23:30.060 ,2,0,0.,12.0,0.,12.0,0.,12.0,0.,12.0
1980-11-13 21:23:42.060 ,2,0,0.,12.0,0.,12.0,0.,12.0,0.,12.0
1980-11-13 21:23:54.060 ,2,0,0.,12.0,0.,12.0,0.,12.0,0.,12.0
1980-11-13 21:24:06.060 ,2,0,0.,12.0,0.,12.0,0.,12.0,0.,12.0
1980-11-13 21:24:18.060 ,2,0,0.,12.0,0.,12.0,0.,12.0,0.,12.0
1980-11-13 21:24:30.060 ,2,0,0.,12.0,0.,12.0,0.,12.0,0.,12.0
1980-11-13 21:24:42.060 ,2,0,0.,12.0,0.,12.0,0.,12.0,0.,12.0
1980-11-13 21:24:54.060 ,2,0,0.,12.0,0.,12.0,0.,12.0,0.,12.0
1980-11-13 21:25:06.060 ,2,0,0.,12.0,0.,12.0,0.,12.0,0.,12.0
1980-11-13 21:25:18.060 ,2,0,0.,12.0,0.,12.0,0.,12.0,0.,12.0
1980-11-13 21:25:30.060 ,2,0,0.,12.0,0.,12.0,0.,12.0,0.,12.0
1980-11-13 21:25:42.060 ,2,0,0.,12.0,0.,12.0,0.,12.0,0.,12.0
1980-11-13 21:25:54.060 ,2,0,0.,12.0,0.,12.0,0.,12.0,0.,12.0
1980-11-13 21:26:06.060 ,2,0,0.,12.0,0.,12.0,0.,12.0,0.,12.0
1980-11-13 21:26:18.060 ,2,0,0.,12.0,0.,12.0,0.,12.0,0.,12.0
1980-11-13 21:26:30.060 ,2,0,0.,12.0,0.,12.0,0.,12.0,0.,12.0
1980-11-13 21:26:42.060 ,2,0,0.,12.0,0.,12.0,0.,12.0,0.,12.0
1980-11-13 21:26:54.060 ,2,0,0.,12.0,0.,12.0,0.,12.0,0.,12.0
1980-11-13 21:27:06.060 ,2,0,0.,12.0,0.,12.0,0.,12.0,0.,12.0
1980-11-13 21:27:18.060 ,2,0,0.,12.0,0.,12.0,0.,12.0,0.,12.0
1980-11-13 21:27:30.060 ,2,0,0.,12.0,0.,12.0,0.,12.0,0.,12.0
1980-11-13 21:27:42.060 ,2,0,0.,12.0,0.,12.0,0.,12.0,0.,12.0
1980-11-13 21:27:54.060 ,2,0,0.,12.0,0.,12.0,0.,12.0,0.,12.0
1980-11-13 21:28:06.060 ,2,0,0.,12.0,0.,12.0,0.,12.0,0.,12.0
1980-11-13 21:28:18.060 ,0,0,0.,12.0,0.,12.0,0.,12.0,0.,12.0
1980-11-13 21:28:30.060 ,0,0,0.,12.0,0.,12.0,0.,12.0,0.,12.0
1980-11-13 21:28:18.060 ,2,0,0.,12.0,0.,12.0,0.,12.0,0.,12.0
1980-11-13 21:28:30.060 ,2,0,0.,12.0,0.,12.0,0.,12.0,0.,12.0
1980-11-13 21:28:42.060 ,2,0,0.,12.0,0.,12.0,0.,12.0,0.,12.0
1980-11-13 21:28:54.060 ,2,0,0.,12.0,0.,12.0,0.,12.0,0.,12.0
1980-11-13 21:29:06.060 ,2,0,0.,12.0,0.,12.0,0.,12.0,0.,12.0
1980-11-13 21:29:18.060 ,2,0,0.,12.0,0.,12.0,0.,12.0,0.,12.0
1980-11-13 21:29:30.060 ,2,0,0.,12.0,0.,12.0,0.,12.0,0.,12.0
1980-11-13 21:29:42.060 ,2,0,0.,12.0,0.,12.0,0.,12.0,0.,12.0
1980-11-13 21:29:54.060 ,2,0,0.,12.0,0.,12.0,0.,12.0,0.,12.0
1980-11-13 21:30:06.060 ,2,0,0.,12.0,0.,12.0,0.,12.0,0.,12.0
1980-11-13 21:30:18.060 ,2,0,0.,12.0,0.,12.0,0.,12.0,0.,12.0
1980-11-13 21:30:30.060 ,2,0,0.,12.0,0.,12.0,0.,12.0,0.,12.0
1980-11-13 21:30:42.060 ,2,0,0.,12.0,0.,12.0,0.,12.0,0.,12.0
1980-11-13 21:30:54.060 ,2,0,0.,12.0,0.,12.0,0.,12.0,0.,12.0
1980-11-13 21:31:06.060 ,2,0,0.,12.0,0.,12.0,0.,12.0,0.,12.0
1980-11-13 21:31:18.060 ,2,0,0.,12.0,0.,12.0,0.,12.0,0.,12.0
1980-11-13 21:31:30.060 ,2,0,0.,12.0,0.,12.0,0.,12.0,0.,12.0
1980-11-13 21:31:42.060 ,2,0,0.,12.0,0.,12.0,0.,12.0,0.,12.0
1980-11-13 21:31:54.060 ,2,0,0.,12.0,0.,12.0,0.,12.0,0.,12.0
1980-11-13 21:32:06.060 ,2,0,0.,12.0,0.,12.0,0.,12.0,0.,12.0
1980-11-13 21:32:18.060 ,2,0,0.,12.0,0.,12.0,0.,12.0,0.,12.0
1980-11-13 21:32:30.060 ,2,0,0.,12.0,0.,12.0,0.,12.0,0.,12.0
1980-11-13 21:32:42.060 ,2,0,0.,12.0,0.,12.0,0.,12.0,0.,12.0
1980-11-13 21:32:54.060 ,2,0,0.,12.0,0.,12.0,0.,12.0,0.,12.0
1980-11-13 21:33:06.060 ,2,0,0.,12.0,0.,12.0,0.,12.0,0.,12.0
1980-11-13 21:33:18.060 ,2,0,0.,12.0,0.,12.0,0.,12.0,0.,12.0
1980-11-13 21:33:30.060 ,2,0,0.,12.0,0.,12.0,0.,12.0,0.,12.0
1980-11-13 21:33:42.060 ,2,0,0.,12.0,0.,12.0,0.,12.0,0.,12.0
1980-11-13 21:33:54.060 ,2,0,0.,12.0,0.,12.0,0.,12.0,0.,12.0
1980-11-13 21:34:06.060 ,2,0,0.,12.0,0.,12.0,0.,12.0,0.,12.0
1980-11-13 21:34:18.060 ,2,0,0.,12.0,0.,12.0,0.,12.0,0.,12.0
1980-11-13 21:34:30.060 ,2,0,0.,12.0,0.,12.0,0.,12.0,0.,12.0
1980-11-13 21:34:42.060 ,2,0,0.,12.0,0.,12.0,0.,12.0,0.,12.0
1980-11-13 21:34:54.060 ,2,0,0.,12.0,0.,12.0,0.,12.0,0.,12.0
1980-11-13 21:35:06.060 ,2,0,0.,12.0,0.,12.0,0.,12.0,0.,12.0
1980-11-13 21:35:18.060 ,2,0,0.,12.0,0.,12.0,0.,12.0,0.,12.0
1980-11-13 21:35:30.060 ,2,0,0.,12.0,0.,12.0,0.,12.0,0.,12.0
1980-11-13 21:35:42.060 ,2,0,0.,12.0,0.,12.0,0.,12.0,0.,12.0
1980-11-13 21:35:54.060 ,2,0,0.,12.0,0.,12.0,0.,12.0,0.,12.0
1980-11-13 21:36:06.060 ,2,0,0.,12.0,0.,12.0,0.,12.0,0.,12.0
1980-11-13 21:36:18.060 ,2,0,0.,12.0,0.,12.0,0.,12.0,0.,12.0
1980-11-13 21:36:30.060 ,2,0,0.,12.0,0.,12.0,0.,12.0,0.,12.0
1980-11-13 21:36:42.060 ,2,0,0.,12.0,0.,12.0,0.,12.0,0.,12.0
1980-11-13 21:36:54.060 ,2,0,0.,12.0,0.,12.0,0.,12.0,0.,12.0
1980-11-13 21:37:06.060 ,2,0,0.,12.0,0.,12.0,0.,12.0,0.,12.0
1980-11-13 21:37:18.060 ,2,0,0.,12.0,0.,12.0,0.,12.0,0.,12.0
1980-11-13 21:37:30.060 ,2,0,0.,12.0,0.,12.0,0.,12.0,0.,12.0
1980-11-13 21:37:42.060 ,2,0,0.,12.0,0.,12.0,0.,12.0,0.,12.0
1980-11-13 21:37:54.060 ,2,0,0.,12.0,0.,12.0,0.,12.0,0.,12.0
1980-11-13 21:38:06.060 ,2,0,0.,12.0,0.,12.0,0.,12.0,0.,12.0
1980-11-13 21:38:18.060 ,2,0,0.,12.0,0.,12.0,0.,12.0,0.,12.0
1980-11-13 21:38:30.060 ,2,0,0.,12.0,0.,12.0,0.,12.0,0.,12.0
1980-11-13 21:38:42.060 ,2,0,0.,12.0,0.,12.0,0.,12.0,0.,12.0
1980-11-13 21:38:54.060 ,2,0,0.,12.0,0.,12.0,0.,12.0,0.,12.0
1980-11-13 21:39:06.060 ,2,0,0.,12.0,0.,12.0,0.,12.0,0.,12.0
1980-11-13 21:39:18.060 ,2,0,0.,12.0,0.,12.0,0.,12.0,0.,12.0
1980-11-13 21:39:30.060 ,2,0,0.,12.0,0.,12.0,0.,12.0,0.,12.0
1980-11-13 21:39:42.060 ,2,0,0.,12.0,0.,12.0,0.,12.0,0.,12.0
1980-11-13 21:39:54.060 ,2,0,0.,12.0,0.,12.0,0.,12.0,0.,12.0
1980-11-13 21:40:06.060 ,2,0,0.,12.0,0.,12.0,0.,12.0,0.,12.0
1980-11-13 21:40:18.060 ,2,0,0.,12.0,0.,12.0,0.,12.0,0.,12.0
1980-11-13 21:40:30.060 ,2,0,0.,12.0,0.,12.0,0.,12.0,0.,12.0
1980-11-13 21:40:42.060 ,2,0,0.,12.0,0.,12.0,0.,12.0,0.,12.0
1980-11-13 21:40:54.060 ,2,0,0.,12.0,0.,12.0,0.,12.0,0.,12.0
1980-11-13 21:41:06.060 ,2,0,0.,12.0,0.,12.0,0.,12.0,0.,12.0
1980-11-13 21:41:18.060 ,2,0,0.,12.0,0.,12.0,0.,12.0,0.,12.0
1980-11-13 21:41:30.060 ,2,0,0.,12.0,0.,12.0,0.,12.0,0.,12.0
1980-11-13 21:41:42.060 ,2,0,0.,12.0,0.,12.0,0.,12.0,0.,12.0
1980-11-13 21:41:54.060 ,2,0,0.,12.0,0.,12.0,0.,12.0,0.,12.0
1980-11-13 21:42:06.060 ,2,0,0.,12.0,0.,12.0,0.,12.0,0.,12.0
1980-11-13 21:42:18.060 ,2,0,0.,12.0,0.,12.0,0.,12.0,0.,12.0
1980-11-13 21:42:30.060 ,2,0,0.,12.0,0.,12.0,0.,12.0,0.,12.0
1980-11-13 21:42:42.060 ,2,0,0.,12.0,0.,12.0,0.,12.0,0.,12.0
1980-11-13 21:42:54.060 ,2,0,0.,12.0,0.,12.0,0.,12.0,0.,12.0
1980-11-13 21:43:06.060 ,2,0,0.,12.0,0.,12.0,0.,12.0,0.,12.0
1980-11-13 21:43:18.060 ,2,0,0.,12.0,0.,12.0,0.,12.0,0.,12.0
1980-11-13 21:43:30.060 ,2,0,0.,12.0,0.,12.0,0.,12.0,0.,12.0
1980-11-13 21:43:42.060 ,2,0,0.,12.0,0.,12.0,0.,12.0,0.,12.0
1980-11-13 21:43:54.060 ,2,0,0.,12.0,0.,12.0,0.,12.0,0.,12.0
1980-11-13 21:44:06.060 ,2,0,0.,12.0,0.,12.0,0.,12.0,0.,12.0
1980-11-13 21:44:18.060 ,2,0,0.,12.0,0.,12.0,0.,12.0,0.,12.0
1980-11-13 21:44:30.060 ,2,0,0.,12.0,0.,12.0,0.,12.0,0.,12.0
1980-11-13 21:44:42.060 ,2,0,0.,12.0,0.,12.0,0.,12.0,0.,12.0
1980-11-13 21:44:54.060 ,2,0,0.,12.0,0.,12.0,0.,12.0,0.,12.0
1980-11-13 21:45:06.060 ,2,0,0.,12.0,0.,12.0,0.,12.0,0.,12.0
1980-11-13 21:45:18.060 ,2,0,0.,12.0,0.,12.0,0.,12.0,0.,12.0
1980-11-13 21:45:30.060 ,2,0,0.,12.0,0.,12.0,0.,12.0,0.,12.0
1980-11-13 21:45:42.060 ,2,0,0.,12.0,0.,12.0,0.,12.0,0.,12.0
1980-11-13 21:45:54.060 ,2,0,0.,12.0,0.,12.0,0.,12.0,0.,12.0
1980-11-13 21:46:06.060 ,2,0,0.,12.0,0.,12.0,0.,12.0,0.,12.0
1980-11-13 21:46:18.060 ,2,0,0.,12.0,0.,12.0,0.,12.0,0.,12.0
1980-11-13 21:46:30.060 ,2,0,0.,12.0,0.,12.0,0.,12.0,0.,12.0
1980-11-13 21:46:42.060 ,2,0,0.,12.0,0.,12.0,0.,12.0,0.,12.0
1980-11-13 21:46:54.060 ,2,0,0.,12.0,0.,12.0,0.,12.0,0.,12.0
1980-11-13 21:47:06.060 ,2,0,0.,12.0,0.,12.0,0.,12.0,0.,12.0
1980-11-13 21:47:18.060 ,2,0,0.,12.0,0.,12.0,0.,12.0,0.,12.0
1980-11-13 21:47:30.060 ,2,0,0.,12.0,0.,12.0,0.,12.0,0.,12.0
1980-11-13 21:47:42.060 ,2,0,0.,12.0,0.,12.0,0.,12.0,0.,12.0
1980-11-13 21:47:54.060 ,2,0,0.,12.0,0.,12.0,0.,12.0,0.,12.0
1980-11-13 21:48:06.060 ,2,0,0.,12.0,0.,12.0,0.,12.0,0.,12.0
1980-11-13 21:48:18.060 ,2,0,0.,12.0,0.,12.0,0.,12.0,0.,12.0
1980-11-13 21:48:30.060 ,2,0,0.,12.0,0.,12.0,0.,12.0,0.,12.0
1980-11-13 21:48:42.060 ,2,0,0.,12.0,0.,12.0,0.,12.0,0.,12.0
1980-11-13 21:48:54.060 ,2,0,0.,12.0,0.,12.0,0.,12.0,0.,12.0
1980-11-13 21:49:06.060 ,2,0,0.,12.0,0.,12.0,0.,12.0,0.,12.0
1980-11-13 21:49:18.060 ,2,0,0.,12.0,0.,12.0,0.,12.0,0.,12.0
1980-11-13 21:49:30.060 ,2,0,0.,12.0,0.,12.0,0.,12.0,0.,12.0
1980-11-13 21:49:42.060 ,2,0,0.,12.0,0.,12.0,0.,12.0,0.,12.0
1980-11-13 21:49:54.060 ,2,0,0.,12.0,0.,12.0,0.,12.0,0.,12.0
1980-11-13 21:50:06.060 ,2,0,0.,12.0,0.,12.0,0.,12.0,0.,12.0
1980-11-13 21:50:18.060 ,2,0,0.,12.0,0.,12.0,0.,12.0,0.,12.0
1980-11-13 21:50:30.060 ,2,0,0.,12.0,0.,12.0,0.,12.0,0.,12.0
1980-11-13 21:50:42.060 ,2,0,0.,12.0,0.,12.0,0.,12.0,0.,12.0
1980-11-13 21:50:54.060 ,2,0,0.,12.0,0.,12.0,0.,12.0,0.,12.0
1980-11-13 21:51:06.060 ,2,0,0.,12.0,0.,12.0,0.,12.0,0.,12.0
1980-11-13 21:51:18.060 ,2,0,0.,12.0,0.,12.0,0.,12.0,0.,12.0
1980-11-13 21:51:30.060 ,2,0,0.,12.0,0.,12.0,0.,12.0,0.,12.0
1980-11-13 21:51:42.060 ,2,0,0.,12.0,0.,12.0,0.,12.0,0.,12.0
1980-11-13 21:51:54.060 ,2,0,0.,12.0,0.,12.0,0.,12.0,0.,12.0
1980-11-13 21:52:06.060 ,2,0,0.,12.0,0.,12.0,0.,12.0,0.,12.0
1980-11-13 21:52:18.060 ,2,0,0.,12.0,0.,12.0,0.,12.0,0.,12.0
1980-11-13 21:52:30.060 ,2,0,0.,12.0,0.,12.0,0.,12.0,0.,12.0
1980-11-13 21:52:42.060 ,2,0,0.,12.0,0.,12.0,0.,12.0,0.,12.0
1980-11-13 21:52:54.060 ,2,0,0.,12.0,0.,12.0,0.,12.0,0.,12.0
1980-11-13 21:53:06.060 ,2,0,0.,12.0,0.,12.0,0.,12.0,0.,12.0
1980-11-13 21:53:18.060 ,2,0,0.,12.0,0.,12.0,0.,12.0,0.,12.0
1980-11-13 21:53:30.060 ,2,0,0.,12.0,0.,12.0,0.,12.0,0.,12.0
1980-11-13 21:53:42.060 ,2,0,0.,12.0,0.,12.0,0.,12.0,0.,12.0
1980-11-13 21:53:54.060 ,2,0,0.,12.0,0.,12.0,0.,12.0,0.,12.0
1980-11-13 21:54:06.060 ,2,0,0.,12.0,0.,12.0,0.,12.0,0.,12.0
1980-11-13 21:54:18.060 ,2,0,0.,12.0,0.,12.0,0.,12.0,0.,12.0
1980-11-13 21:54:30.060 ,2,0,0.,12.0,0.,12.0,0.,12.0,0.,12.0
1980-11-13 21:54:42.060 ,2,0,0.,12.0,0.,12.0,0.,12.0,0.,12.0
1980-11-13 21:54:54.060 ,2,0,0.,12.0,0.,12.0,0.,12.0,0.,12.0
1980-11-13 21:55:06.060 ,2,0,0.,12.0,0.,12.0,0.,12.0,0.,12.0
1980-11-13 21:55:18.060 ,2,0,0.,12.0,0.,12.0,0.,12.0,0.,12.0
1980-11-13 21:55:30.060 ,2,0,0.,12.0,0.,12.0,0.,12.0,0.,12.0
1980-11-13 21:55:42.060 ,2,0,0.,12.0,0.,12.0,0.,12.0,0.,12.0
1980-11-13 21:55:54.060 ,2,0,0.,12.0,0.,12.0,0.,12.0,0.,12.0
1980-11-13 21:56:06.060 ,2,0,0.,12.0,0.,12.0,0.,12.0,0.,12.0
1980-11-13 21:56:18.060 ,2,0,0.,12.0,0.,12.0,0.,12.0,0.,12.0
1980-11-13 21:56:30.060 ,2,0,0.,12.0,0.,12.0,0.,12.0,0.,12.0
1980-11-13 21:56:42.060 ,2,0,0.,12.0,0.,12.0,0.,12.0,0.,12.0
1980-11-13 21:56:54.060 ,2,0,0.,12.0,0.,12.0,0.,12.0,0.,12.0
1980-11-13 21:57:06.060 ,2,0,0.,12.0,0.,12.0,0.,12.0,0.,12.0
1980-11-13 21:57:18.060 ,2,0,0.,12.0,0.,12.0,0.,12.0,0.,12.0
1980-11-13 21:57:30.060 ,2,0,0.,12.0,0.,12.0,0.,12.0,0.,12.0
1980-11-13 21:57:42.060 ,2,0,0.,12.0,0.,12.0,0.,12.0,0.,12.0
1980-11-13 21:57:54.060 ,2,0,0.,12.0,0.,12.0,0.,12.0,0.,12.0
1980-11-13 21:58:06.060 ,2,0,0.,12.0,0.,12.0,0.,12.0,0.,12.0
1980-11-13 21:58:18.060 ,2,0,0.,12.0,0.,12.0,0.,12.0,0.,12.0
1980-11-13 21:58:30.060 ,2,0,0.,12.0,0.,12.0,0.,12.0,0.,12.0
1980-11-13 21:58:42.060 ,2,0,0.,12.0,0.,12.0,0.,12.0,0.,12.0
1980-11-13 21:58:54.060 ,2,0,0.,12.0,0.,12.0,0.,12.0,0.,12.0
1980-11-13 21:59:06.060 ,2,0,0.,12.0,0.,12.0,0.,12.0,0.,12.0
1980-11-13 21:59:18.060 ,2,0,0.,12.0,0.,12.0,0.,12.0,0.,12.0
1980-11-13 21:59:30.060 ,2,0,0.,12.0,0.,12.0,0.,12.0,0.,12.0
1980-11-13 21:59:42.060 ,2,0,0.,12.0,0.,12.0,0.,12.0,0.,12.0
1980-11-13 21:59:54.060 ,2,0,0.,12.0,0.,12.0,0.,12.0,0.,12.0
1980-11-13 22:00:06.060 ,2,0,0.,12.0,0.,12.0,0.,12.0,0.,12.0
1980-11-13 22:00:18.060 ,2,0,0.,12.0,0.,12.0,0.,12.0,0.,12.0
1980-11-13 22:00:30.060 ,2,0,0.,12.0,0.,12.0,0.,12.0,0.,12.0
1980-11-13 22:00:42.060 ,2,0,0.,12.0,0.,12.0,0.,12.0,0.,12.0
1980-11-13 22:00:54.060 ,2,0,0.,12.0,0.,12.0,0.,12.0,0.,12.0
1980-11-13 22:01:06.060 ,2,0,0.,12.0,0.,12.0,0.,12.0,0.,12.0
1980-11-13 22:01:18.060 ,2,0,0.,12.0,0.,12.0,0.,12.0,0.,12.0
1980-11-13 22:01:30.060 ,2,0,0.,12.0,0.,12.0,0.,12.0,0.,12.0
1980-11-13 22:01:42.060 ,2,0,0.,12.0,0.,12.0,0.,12.0,0.,12.0
1980-11-13 22:01:54.060 ,2,0,0.,12.0,0.,12.0,0.,12.0,0.,12.0
1980-11-13 22:02:06.060 ,2,0,0.,12.0,0.,12.0,0.,12.0,0.,12.0
1980-11-13 22:02:18.060 ,2,0,0.,12.0,0.,12.0,0.,12.0,0.,12.0
1980-11-13 22:02:30.060 ,2,0,0.,12.0,0.,12.0,0.,12.0,0.,12.0
1980-11-13 22:02:42.060 ,2,0,0.,12.0,0.,12.0,0.,12.0,0.,12.0
1980-11-13 22:02:54.060 ,2,0,0.,12.0,0.,12.0,0.,12.0,0.,12.0
1980-11-13 22:03:06.060 ,2,0,0.,12.0,0.,12.0,0.,12.0,0.,12.0
1980-11-13 22:03:18.060 ,2,0,0.,12.0,0.,12.0,0.,12.0,0.,12.0
1980-11-13 22:03:30.060 ,2,0,0.,12.0,0.,12.0,0.,12.0,0.,12.0
1980-11-13 22:03:42.060 ,2,0,0.,12.0,0.,12.0,0.,12.0,0.,12.0
1980-11-13 22:03:54.060 ,2,0,0.,12.0,0.,12.0,0.,12.0,0.,12.0
1980-11-13 22:04:06.060 ,2,0,0.,12.0,0.,12.0,0.,12.0,0.,12.0
1980-11-13 22:04:18.060 ,2,0,0.,12.0,0.,12.0,0.,12.0,0.,12.0
1980-11-13 22:04:30.060 ,2,0,0.,12.0,0.,12.0,0.,12.0,0.,12.0
1980-11-13 22:04:42.060 ,2,0,0.,12.0,0.,12.0,0.,12.0,0.,12.0
1980-11-13 22:04:54.060 ,2,0,0.,12.0,0.,12.0,0.,12.0,0.,12.0
1980-11-13 22:05:06.060 ,2,0,0.,12.0,0.,12.0,0.,12.0,0.,12.0
1980-11-13 22:05:18.060 ,2,0,0.,12.0,0.,12.0,0.,12.0,0.,12.0
1980-11-13 22:05:30.060 ,2,0,0.,12.0,0.,12.0,0.,12.0,0.,12.0
1980-11-13 22:05:42.060 ,2,0,0.,12.0,0.,12.0,0.,12.0,0.,12.0
1980-11-13 22:05:54.060 ,2,0,0.,12.0,0.,12.0,0.,12.0,0.,12.0
1980-11-13 22:06:06.060 ,2,0,0.,12.0,0.,12.0,0.,12.0,0.,12.0
1980-11-13 22:06:18.060 ,2,0,0.,12.0,0.,12.0,0.,12.0,0.,12.0
1980-11-13 22:06:30.060 ,2,0,0.,12.0,0.,12.0,0.,12.0,0.,12.0
1980-11-13 22:06:42.060 ,2,0,0.,12.0,0.,12.0,0.,12.0,0.,12.0
1980-11-13 22:06:54.060 ,2,0,0.,12.0,0.,12.0,0.,12.0,0.,12.0
1980-11-13 22:07:06.060 ,2,0,0.,12.0,0.,12.0,0.,12.0,0.,12.0
1980-11-13 22:07:18.060 ,2,0,0.,12.0,0.,12.0,0.,12.0,0.,12.0
1980-11-13 22:07:30.060 ,2,0,0.,12.0,0.,12.0,0.,12.0,0.,12.0
1980-11-13 22:07:42.060 ,2,0,0.,12.0,0.,12.0,0.,12.0,0.,12.0
1980-11-13 22:07:54.060 ,2,0,0.,12.0,0.,12.0,0.,12.0,0.,12.0
1980-11-13 22:08:06.060 ,2,0,0.,12.0,0.,12.0,0.,12.0,0.,12.0
1980-11-13 22:08:18.060 ,2,0,0.,12.0,0.,12.0,0.,12.0,0.,12.0
1980-11-13 22:08:30.060 ,2,0,0.,12.0,0.,12.0,0.,12.0,0.,12.0
1980-11-13 22:08:42.060 ,2,0,0.,12.0,0.,12.0,0.,12.0,0.,12.0
1980-11-13 22:08:54.060 ,2,0,0.,12.0,0.,12.0,0.,12.0,0.,12.0
1980-11-13 22:09:06.060 ,2,0,0.,12.0,0.,12.0,0.,12.0,0.,12.0
1980-11-13 22:09:18.060 ,2,0,0.,12.0,0.,12.0,0.,12.0,0.,12.0
1980-11-13 22:09:30.060 ,2,0,0.,12.0,0.,12.0,0.,12.0,0.,12.0
1980-11-13 22:09:42.060 ,2,0,0.,12.0,0.,12.0,0.,12.0,0.,12.0
1980-11-13 22:09:54.060 ,2,0,0.,12.0,0.,12.0,0.,12.0,0.,12.0
1980-11-13 22:10:06.060 ,2,0,0.,12.0,0.,12.0,0.,12.0,0.,12.0
1980-11-13 22:10:18.060 ,2,0,0.,12.0,0.,12.0,0.,12.0,0.,12.0
1980-11-13 22:10:30.060 ,2,0,0.,12.0,0.,12.0,0.,12.0,0.,12.0
1980-11-13 22:10:42.060 ,2,0,0.,12.0,0.,12.0,0.,12.0,0.,12.0
1980-11-13 22:10:54.060 ,2,0,0.,12.0,0.,12.0,0.,12.0,0.,12.0
1980-11-13 22:11:06.060 ,2,0,0.,12.0,0.,12.0,0.,12.0,0.,12.0
1980-11-13 22:11:18.060 ,2,0,0.,12.0,0.,12.0,0.,12.0,0.,12.0
1980-11-13 22:11:30.060 ,2,0,0.,12.0,0.,12.0,0.,12.0,0.,12.0
1980-11-13 22:11:42.060 ,2,0,0.,12.0,0.,12.0,0.,12.0,0.,12.0
1980-11-13 22:11:54.060 ,2,0,0.,12.0,0.,12.0,0.,12.0,0.,12.0
1980-11-13 22:12:06.060 ,2,0,0.,12.0,0.,12.0,0.,12.0,0.,12.0
1980-11-13 22:12:18.060 ,2,0,0.,12.0,0.,12.0,0.,12.0,0.,12.0
1980-11-13 22:12:30.060 ,2,0,0.,12.0,0.,12.0,0.,12.0,0.,12.0
1980-11-13 22:12:42.060 ,2,0,0.,12.0,0.,12.0,0.,12.0,0.,12.0
1980-11-13 22:12:54.060 ,2,0,0.,12.0,0.,12.0,0.,12.0,0.,12.0
1980-11-13 22:13:06.060 ,2,0,0.,12.0,0.,12.0,0.,12.0,0.,12.0
1980-11-13 22:13:18.060 ,2,0,0.,12.0,0.,12.0,0.,12.0,0.,12.0
1980-11-13 22:13:30.060 ,2,0,0.,12.0,0.,12.0,0.,12.0,0.,12.0
1980-11-13 22:13:42.060 ,2,0,0.,12.0,0.,12.0,0.,12.0,0.,12.0
1980-11-13 22:13:54.060 ,2,0,0.,12.0,0.,12.0,0.,12.0,0.,12.0
1980-11-13 22:14:06.060 ,2,0,0.,12.0,0.,12.0,0.,12.0,0.,12.0
1980-11-13 22:14:18.060 ,2,0,0.,12.0,0.,12.0,0.,12.0,0.,12.0
1980-11-13 22:14:30.060 ,2,0,0.,12.0,0.,12.0,0.,12.0,0.,12.0
1980-11-13 22:14:42.060 ,2,0,0.,12.0,0.,12.0,0.,12.0,0.,12.0
1980-11-13 22:14:54.060 ,2,0,0.,12.0,0.,12.0,0.,12.0,0.,12.0
1980-11-13 22:15:06.060 ,2,0,0.,12.0,0.,12.0,0.,12.0,0.,12.0
1980-11-13 22:15:18.060 ,2,0,0.,12.0,0.,12.0,0.,12.0,0.,12.0
1980-11-13 22:15:30.060 ,2,0,0.,12.0,0.,12.0,0.,12.0,0.,12.0
1980-11-13 22:15:42.060 ,2,0,0.,12.0,0.,12.0,0.,12.0,0.,12.0
1980-11-13 22:15:54.060 ,2,0,0.,12.0,0.,12.0,0.,12.0,0.,12.0
1980-11-13 22:16:06.060 ,2,0,0.,12.0,0.,12.0,0.,12.0,0.,12.0
1980-11-13 22:16:18.060 ,2,0,0.,12.0,0.,12.0,0.,12.0,0.,12.0
1980-11-13 22:16:30.060 ,2,0,0.,12.0,0.,12.0,0.,12.0,0.,12.0
1980-11-13 22:16:42.060 ,2,0,0.,12.0,0.,12.0,0.,12.0,0.,12.0
1980-11-13 22:16:54.060 ,2,0,0.,12.0,0.,12.0,0.,12.0,0.,12.0
1980-11-13 22:17:06.060 ,2,0,0.,12.0,0.,12.0,0.,12.0,0.,12.0
1980-11-13 22:17:18.060 ,2,0,0.,12.0,0.,12.0,0.,12.0,0.,12.0
1980-11-13 22:17:30.060 ,2,0,0.,12.0,0.,12.0,0.,12.0,0.,12.0
1980-11-13 22:17:42.060 ,2,0,0.,12.0,0.,12.0,0.,12.0,0.,12.0
1980-11-13 22:17:54.060 ,2,0,0.,12.0,0.,12.0,0.,12.0,0.,12.0